| time (UTC) | temp C | wind direction | speed KPH | gust KPH | rain 1hr cm | rain 24hr cm | rain mn cm | humidity % | barometer mb |
| 20260502191530 | 13 | 219 | 1.6 | 14.5 | 0.00 | 0.00 | 0.00 | 36 | 1013.8 |
| 20260502191010 | 13 | 183 | 6.4 | 11.3 | 0.00 | 0.00 | 0.00 | 37 | 1013.9 |
| 20260502190511 | 13 | 198 | 3.2 | 24.1 | 0.00 | 0.00 | 0.00 | 34 | 1014.1 |
| 20260502190030 | 13 | 259 | 6.4 | 24.1 | 0.00 | 0.00 | 0.00 | 35 | 1014.1 |
| 20260502185511 | 13 | 226 | 6.4 | 12.9 | 0.00 | 0.00 | 0.00 | 37 | 1014.2 |
| 20260502185015 | 13 | 193 | 3.2 | 11.3 | 0.00 | 0.00 | 0.00 | 40 | 1014.3 |
| 20260502184530 | 13 | 257 | 1.6 | 11.3 | 0.00 | 0.00 | 0.00 | 38 | 1014.3 |
| 20260502184010 | 13 | 0 | 3.2 | 12.9 | 0.00 | 0.00 | 0.00 | 33 | 1014.4 |
| 20260502183512 | 13 | 209 | 4.8 | 17.7 | 0.00 | 0.00 | 0.00 | 36 | 1014.5 |
| 20260502183036 | 13 | 263 | 3.2 | 17.7 | 0.00 | 0.00 | 0.00 | 37 | 1014.5 |
| 20260502182514 | 13 | 222 | 6.4 | 16.1 | 0.00 | 0.00 | 0.00 | 37 | 1014.5 |
| 20260502182014 | 12 | 270 | 1.6 | 16.1 | 0.00 | 0.00 | 0.00 | 39 | 1014.6 |
| 20260502181531 | 12 | 0 | 4.8 | 16.1 | 0.00 | 0.00 | 0.00 | 38 | 1014.8 |
| 20260502181007 | 12 | 223 | 6.4 | 12.9 | 0.00 | 0.00 | 0.00 | 37 | 1014.9 |
| 20260502180512 | 12 | 277 | 4.8 | 16.1 | 0.00 | 0.00 | 0.00 | 41 | 1014.8 |
| 20260502170514 | 11 | 0 | 1.6 | 8.0 | 0.00 | 0.00 | 0.00 | 37 | 1015.8 |
| 20260502164009 | 11 | 69 | 0.0 | 11.3 | 0.00 | 0.00 | 0.00 | 37 | 1016.3 |
| 20260502163512 | 11 | 115 | 1.6 | 8.0 | 0.00 | 0.00 | 0.00 | 36 | 1016.3 |
| 20260502163030 | 11 | 198 | 1.6 | 6.4 | 0.00 | 0.00 | 0.00 | 38 | 1016.3 |
| 20260502162511 | 11 | 260 | 3.2 | 14.5 | 0.00 | 0.00 | 0.00 | 41 | 1016.5 |
| 20260502162012 | 11 | 232 | 4.8 | 14.5 | 0.00 | 0.00 | 0.00 | 39 | 1016.5 |
| 20260502161530 | 11 | 244 | 4.8 | 14.5 | 0.00 | 0.00 | 0.00 | 39 | 1016.6 |
| 20260502161011 | 11 | 0 | 3.2 | 9.7 | 0.00 | 0.00 | 0.00 | 38 | 1016.7 |
| 20260502160514 | 11 | 0 | 1.6 | 17.7 | 0.00 | 0.00 | 0.00 | 37 | 1016.6 |
| 20260502152015 | 11 | 255 | 1.6 | 9.7 | 0.00 | 0.00 | 0.00 | 40 | 1017.0 |
| 20260502151531 | 11 | 269 | 3.2 | 9.7 | 0.00 | 0.00 | 0.00 | 41 | 1017.1 |
| 20260502151012 | 11 | 228 | 1.6 | 8.0 | 0.00 | 0.00 | 0.00 | 42 | 1017.1 |
| 20260502150513 | 10 | 315 | 1.6 | 8.0 | 0.00 | 0.00 | 0.00 | 42 | 1017.1 |
| 20260502130512 | 5 | 218 | 3.2 | 11.3 | 0.00 | 0.00 | 0.00 | 65 | 1017.9 |
| 20260502123514 | 2 | 202 | 1.6 | 6.4 | 0.00 | 0.00 | 0.00 | 68 | 1018.0 |
| 20260502123029 | 2 | 234 | 3.2 | 6.4 | 0.00 | 0.00 | 0.00 | 72 | 1018.1 |
| 20260502122508 | 2 | 234 | 3.2 | 6.4 | 0.00 | 0.00 | 0.00 | 72 | 1018.1 |
| 20260502122011 | 1 | 234 | 3.2 | 6.4 | 0.00 | 0.00 | 0.00 | 73 | 1018.1 |
| 20260502121535 | 1 | 234 | 3.2 | 6.4 | 0.00 | 0.00 | 0.00 | 75 | 1018.0 |
| 20260502121009 | 1 | 302 | 0.0 | 4.8 | 0.00 | 0.00 | 0.00 | 77 | 1018.0 |
| 20260502120511 | 0 | 0 | 0.0 | 0.0 | 0.00 | 0.00 | 0.00 | 78 | 1018.1 |
| 20260502115510 | 0 | 0 | 0.0 | 1.6 | 0.00 | 0.00 | 0.00 | 79 | 1018.0 |
| 20260502115013 | 0 | 0 | 0.0 | 1.6 | 0.00 | 0.00 | 0.00 | 79 | 1018.0 |
| 20260502114530 | 0 | 0 | 0.0 | 0.0 | 0.00 | 0.00 | 0.00 | 79 | 1017.9 |
| 20260502114010 | 0 | 0 | 0.0 | 0.0 | 0.00 | 0.00 | 0.00 | 80 | 1018.0 |
| 20260502113508 | 0 | 0 | 0.0 | 0.0 | 0.00 | 0.00 | 0.00 | 83 | 1018.0 |
| 20260502113031 | -1 | 0 | 0.0 | 0.0 | 0.00 | 0.00 | 0.00 | 83 | 1018.0 |
| 20260502112508 | -1 | 0 | 0.0 | 0.0 | 0.00 | 0.00 | 0.00 | 81 | 1017.9 |
| 20260502112016 | -1 | 0 | 0.0 | 0.0 | 0.00 | 0.00 | 0.00 | 79 | 1017.9 |
| 20260502111532 | -1 | 0 | 0.0 | 0.0 | 0.00 | 0.00 | 0.00 | 76 | 1017.9 |
| 20260502111011 | -1 | 0 | 0.0 | 0.0 | 0.00 | 0.00 | 0.00 | 75 | 1017.9 |
| 20260502110513 | 0 | 0 | 0.0 | 0.0 | 0.00 | 0.00 | 0.00 | 74 | 1017.9 |
| 20260502110035 | 0 | 0 | 0.0 | 0.0 | 0.00 | 0.00 | 0.00 | 73 | 1017.8 |
| 20260502105511 | 0 | 0 | 0.0 | 0.0 | 0.00 | 0.00 | 0.00 | 73 | 1018.0 |
| 20260502105011 | 0 | 0 | 0.0 | 0.0 | 0.00 | 0.00 | 0.00 | 73 | 1017.9 |
| 20260502104529 | 0 | 0 | 0.0 | 0.0 | 0.00 | 0.00 | 0.00 | 73 | 1017.9 |
| 20260502104013 | 0 | 0 | 0.0 | 3.2 | 0.00 | 0.00 | 0.00 | 73 | 1017.9 |
| 20260502103511 | 0 | 0 | 0.0 | 3.2 | 0.00 | 0.00 | 0.00 | 73 | 1018.0 |
| 20260502103056 | 0 | 0 | 0.0 | 3.2 | 0.00 | 0.00 | 0.00 | 73 | 1018.0 |
| 20260502102513 | 0 | 0 | 0.0 | 3.2 | 0.00 | 0.00 | 0.00 | 74 | 1018.0 |
| 20260502102013 | 0 | 0 | 0.0 | 3.2 | 0.00 | 0.00 | 0.00 | 74 | 1018.0 |
| 20260502101546 | 0 | 0 | 0.0 | 3.2 | 0.00 | 0.00 | 0.00 | 74 | 1018.1 |
| 20260502101012 | 0 | 0 | 0.0 | 0.0 | 0.00 | 0.00 | 0.00 | 74 | 1018.0 |
| 20260502100512 | 0 | 0 | 0.0 | 0.0 | 0.00 | 0.00 | 0.00 | 75 | 1018.0 |
| 20260502091529 | 0 | 0 | 0.0 | 0.0 | 0.00 | 0.00 | 0.00 | 76 | 1018.1 |
| 20260502091011 | 0 | 0 | 0.0 | 0.0 | 0.00 | 0.00 | 0.00 | 77 | 1018.1 |
| 20260502090511 | 0 | 0 | 0.0 | 0.0 | 0.00 | 0.00 | 0.00 | 77 | 1018.1 |
| 20260502071534 | 0 | 0 | 0.0 | 0.0 | 0.00 | 0.00 | 0.00 | 82 | 1018.5 |
| 20260502071010 | 0 | 0 | 0.0 | 0.0 | 0.00 | 0.00 | 0.00 | 83 | 1018.5 |
| 20260502070513 | -1 | 0 | 0.0 | 0.0 | 0.00 | 0.00 | 0.00 | 83 | 1018.6 |
| 20260502070030 | 0 | 0 | 0.0 | 0.0 | 0.00 | 0.00 | 0.00 | 82 | 1018.6 |
| 20260502065513 | 0 | 0 | 0.0 | 0.0 | 0.00 | 0.00 | 0.00 | 81 | 1018.6 |
| 20260502065017 | 0 | 0 | 0.0 | 0.0 | 0.00 | 0.00 | 0.00 | 82 | 1018.6 |
| 20260502064535 | 0 | 0 | 0.0 | 0.0 | 0.00 | 0.00 | 0.00 | 84 | 1018.7 |
| 20260502064012 | 0 | 0 | 0.0 | 0.0 | 0.00 | 0.00 | 0.00 | 86 | 1018.7 |
| 20260502063510 | 0 | 0 | 0.0 | 0.0 | 0.00 | 0.00 | 0.00 | 86 | 1018.7 |
| 20260502063032 | 0 | 0 | 0.0 | 0.0 | 0.00 | 0.00 | 0.00 | 85 | 1018.7 |
| 20260502062513 | 0 | 0 | 0.0 | 0.0 | 0.00 | 0.00 | 0.00 | 85 | 1018.7 |
| 20260502062011 | 0 | 0 | 0.0 | 0.0 | 0.00 | 0.00 | 0.00 | 84 | 1018.8 |
| 20260502061528 | 0 | 0 | 0.0 | 0.0 | 0.00 | 0.00 | 0.00 | 83 | 1018.7 |
| 20260502061013 | 0 | 0 | 0.0 | 0.0 | 0.00 | 0.00 | 0.00 | 80 | 1018.8 |
| 20260502060512 | 0 | 0 | 0.0 | 0.0 | 0.00 | 0.00 | 0.00 | 80 | 1018.8 |
| 20260502060030 | 0 | 0 | 0.0 | 0.0 | 0.00 | 0.00 | 0.00 | 80 | 1018.8 |
| 20260502055511 | 0 | 0 | 0.0 | 0.0 | 0.00 | 0.00 | 0.00 | 80 | 1018.8 |
| 20260502055009 | 0 | 0 | 0.0 | 0.0 | 0.00 | 0.00 | 0.00 | 83 | 1018.8 |
| 20260502054545 | 0 | 0 | 0.0 | 0.0 | 0.00 | 0.00 | 0.00 | 82 | 1018.7 |
| 20260502054009 | 0 | 0 | 0.0 | 0.0 | 0.00 | 0.00 | 0.00 | 80 | 1018.8 |
| 20260502053513 | 0 | 0 | 0.0 | 0.0 | 0.00 | 0.00 | 0.00 | 80 | 1018.8 |
| 20260502053032 | 0 | 0 | 0.0 | 0.0 | 0.00 | 0.00 | 0.00 | 79 | 1018.8 |
| 20260502052510 | 0 | 0 | 0.0 | 0.0 | 0.00 | 0.00 | 0.00 | 80 | 1018.8 |
| 20260502052012 | 0 | 0 | 0.0 | 0.0 | 0.00 | 0.00 | 0.00 | 78 | 1018.8 |
| 20260502051533 | 0 | 0 | 0.0 | 0.0 | 0.00 | 0.00 | 0.00 | 77 | 1018.8 |
| 20260502051009 | 0 | 0 | 0.0 | 0.0 | 0.00 | 0.00 | 0.00 | 78 | 1018.8 |
| 20260502050508 | 0 | 0 | 0.0 | 0.0 | 0.00 | 0.00 | 0.00 | 80 | 1018.8 |
| 20260502050031 | 0 | 0 | 0.0 | 0.0 | 0.00 | 0.00 | 0.00 | 82 | 1018.9 |
| 20260502045510 | 0 | 0 | 0.0 | 0.0 | 0.00 | 0.00 | 0.00 | 83 | 1018.9 |
| 20260502045011 | 0 | 0 | 0.0 | 0.0 | 0.00 | 0.00 | 0.00 | 81 | 1018.8 |
| 20260502044530 | 0 | 0 | 0.0 | 0.0 | 0.00 | 0.00 | 0.00 | 79 | 1018.8 |
| 20260502044008 | 1 | 0 | 0.0 | 0.0 | 0.00 | 0.00 | 0.00 | 77 | 1018.8 |
| 20260502043511 | 1 | 0 | 0.0 | 0.0 | 0.00 | 0.00 | 0.00 | 76 | 1018.9 |
| 20260502043031 | 1 | 0 | 0.0 | 0.0 | 0.00 | 0.00 | 0.00 | 73 | 1018.8 |
| 20260502042511 | 1 | 0 | 0.0 | 0.0 | 0.00 | 0.00 | 0.00 | 73 | 1018.9 |
| 20260502042013 | 1 | 0 | 0.0 | 0.0 | 0.00 | 0.00 | 0.00 | 73 | 1018.9 |
| 20260502041534 | 1 | 0 | 0.0 | 0.0 | 0.00 | 0.00 | 0.00 | 73 | 1018.9 |
| 20260502041010 | 1 | 0 | 0.0 | 0.0 | 0.00 | 0.00 | 0.00 | 74 | 1018.9 |
| 20260502040513 | 1 | 0 | 0.0 | 0.0 | 0.00 | 0.00 | 0.00 | 75 | 1018.9 |
| 20260502040032 | 1 | 0 | 0.0 | 0.0 | 0.00 | 0.00 | 0.00 | 77 | 1018.9 |
| 20260502035509 | 2 | 0 | 0.0 | 0.0 | 0.00 | 0.00 | 0.00 | 78 | 1019.1 |
| 20260502035013 | 2 | 0 | 0.0 | 0.0 | 0.00 | 0.00 | 0.00 | 71 | 1018.9 |
| 20260502034530 | 2 | 0 | 0.0 | 0.0 | 0.00 | 0.00 | 0.00 | 69 | 1019.0 |
| 20260502034014 | 2 | 0 | 0.0 | 0.0 | 0.00 | 0.00 | 0.00 | 69 | 1018.9 |
| 20260502033510 | 2 | 0 | 0.0 | 0.0 | 0.00 | 0.00 | 0.00 | 70 | 1018.9 |
| 20260502033039 | 2 | 0 | 0.0 | 0.0 | 0.00 | 0.00 | 0.00 | 69 | 1018.9 |
| 20260502032513 | 2 | 0 | 0.0 | 6.4 | 0.00 | 0.00 | 0.00 | 69 | 1018.9 |
| 20260502032015 | 3 | 0 | 0.0 | 6.4 | 0.00 | 0.00 | 0.00 | 69 | 1018.9 |
| 20260502031530 | 3 | 302 | 0.0 | 6.4 | 0.00 | 0.00 | 0.00 | 68 | 1018.9 |
| 20260502031009 | 3 | 0 | 0.0 | 6.4 | 0.00 | 0.00 | 0.00 | 67 | 1018.9 |
| 20260502030511 | 3 | 302 | 0.0 | 6.4 | 0.00 | 0.00 | 0.00 | 67 | 1018.9 |
| 20260502030035 | 4 | 302 | 1.6 | 6.4 | 0.00 | 0.00 | 0.00 | 68 | 1018.9 |
| 20260502025510 | 4 | 0 | 0.0 | 3.2 | 0.00 | 0.00 | 0.00 | 63 | 1018.8 |
| 20260502025011 | 4 | 0 | 0.0 | 4.8 | 0.00 | 0.00 | 0.00 | 63 | 1018.8 |
| 20260502024530 | 5 | 302 | 1.6 | 4.8 | 0.00 | 0.00 | 0.00 | 63 | 1018.9 |
| 20260502024015 | 4 | 0 | 0.0 | 0.0 | 0.00 | 0.00 | 0.00 | 63 | 1018.9 |
| 20260502023512 | 5 | 0 | 0.0 | 4.8 | 0.00 | 0.00 | 0.00 | 62 | 1018.9 |
| 20260502023031 | 5 | 0 | 0.0 | 4.8 | 0.00 | 0.00 | 0.00 | 60 | 1018.9 |
| 20260502022508 | 4 | 0 | 0.0 | 4.8 | 0.00 | 0.00 | 0.00 | 63 | 1018.9 |
| 20260502022016 | 4 | 302 | 1.6 | 4.8 | 0.00 | 0.00 | 0.00 | 68 | 1018.9 |
| 20260502021531 | 3 | 0 | 0.0 | 0.0 | 0.00 | 0.00 | 0.00 | 64 | 1018.9 |
| 20260502021008 | 3 | 0 | 0.0 | 0.0 | 0.00 | 0.00 | 0.00 | 63 | 1018.8 |
| 20260502020511 | 4 | 0 | 0.0 | 0.0 | 0.00 | 0.00 | 0.00 | 62 | 1018.8 |
| 20260502020032 | 4 | 0 | 0.0 | 0.0 | 0.00 | 0.00 | 0.00 | 62 | 1018.8 |
| 20260502015514 | 4 | 0 | 0.0 | 0.0 | 0.00 | 0.00 | 0.00 | 61 | 1018.8 |
| 20260502015017 | 4 | 0 | 0.0 | 0.0 | 0.00 | 0.00 | 0.00 | 61 | 1018.7 |
| 20260502014531 | 4 | 0 | 0.0 | 0.0 | 0.00 | 0.00 | 0.00 | 60 | 1018.7 |
| 20260502014012 | 5 | 0 | 0.0 | 0.0 | 0.00 | 0.00 | 0.00 | 59 | 1018.7 |
| 20260502013512 | 5 | 0 | 0.0 | 0.0 | 0.00 | 0.00 | 0.00 | 58 | 1018.6 |
| 20260502013032 | 5 | 0 | 0.0 | 0.0 | 0.00 | 0.00 | 0.00 | 58 | 1018.6 |
| 20260502012511 | 5 | 0 | 0.0 | 0.0 | 0.00 | 0.00 | 0.00 | 58 | 1018.6 |
| 20260502012015 | 5 | 0 | 0.0 | 0.0 | 0.00 | 0.00 | 0.00 | 57 | 1018.5 |
| 20260502011532 | 5 | 0 | 0.0 | 0.0 | 0.00 | 0.00 | 0.00 | 58 | 1018.5 |
| 20260502011012 | 6 | 0 | 0.0 | 0.0 | 0.00 | 0.00 | 0.00 | 57 | 1018.5 |
| 20260502010512 | 6 | 0 | 0.0 | 0.0 | 0.00 | 0.00 | 0.00 | 55 | 1018.5 |
| 20260502010030 | 6 | 0 | 0.0 | 0.0 | 0.00 | 0.00 | 0.00 | 57 | 1018.5 |
| 20260502005515 | 6 | 0 | 0.0 | 0.0 | 0.00 | 0.00 | 0.00 | 54 | 1018.5 |
| 20260502005013 | 6 | 0 | 0.0 | 0.0 | 0.00 | 0.00 | 0.00 | 54 | 1018.5 |
| 20260502004532 | 6 | 0 | 0.0 | 0.0 | 0.00 | 0.00 | 0.00 | 52 | 1018.5 |
| 20260502004012 | 6 | 0 | 0.0 | 0.0 | 0.00 | 0.00 | 0.00 | 55 | 1018.5 |
| 20260502003510 | 6 | 0 | 0.0 | 0.0 | 0.00 | 0.00 | 0.00 | 55 | 1018.5 |
| 20260502003029 | 6 | 0 | 0.0 | 0.0 | 0.00 | 0.00 | 0.00 | 55 | 1018.5 |
| 20260502002510 | 7 | 0 | 0.0 | 0.0 | 0.00 | 0.00 | 0.00 | 54 | 1018.5 |
| 20260502002010 | 7 | 0 | 0.0 | 0.0 | 0.00 | 0.00 | 0.00 | 55 | 1018.5 |
| 20260502001533 | 7 | 0 | 0.0 | 3.2 | 0.00 | 0.00 | 0.00 | 52 | 1018.5 |
| 20260502001012 | 7 | 0 | 0.0 | 3.2 | 0.00 | 0.00 | 0.00 | 53 | 1018.5 |
| 20260502000514 | 7 | 302 | 0.0 | 3.2 | 0.00 | 0.00 | 0.00 | 53 | 1018.5 |
| 20260502000032 | 7 | 0 | 0.0 | 3.2 | 0.00 | 0.00 | 0.00 | 48 | 1018.5 |
| 20260501235513 | 7 | 0 | 0.0 | 3.2 | 0.00 | 0.00 | 0.00 | 50 | 1018.4 |
| 20260501235016 | 7 | 302 | 0.0 | 3.2 | 0.00 | 0.00 | 0.00 | 50 | 1018.4 |
| 20260501234534 | 7 | 0 | 0.0 | 4.8 | 0.00 | 0.00 | 0.00 | 51 | 1018.4 |
| 20260501234012 | 7 | 0 | 0.0 | 6.4 | 0.00 | 0.00 | 0.00 | 49 | 1018.4 |
| 20260501233510 | 7 | 0 | 1.6 | 8.0 | 0.00 | 0.00 | 0.00 | 48 | 1018.4 |
| 20260501233042 | 7 | 0 | 0.0 | 8.0 | 0.00 | 0.00 | 0.00 | 45 | 1018.3 |
| 20260501232513 | 7 | 15 | 1.6 | 8.0 | 0.00 | 0.00 | 0.00 | 45 | 1018.3 |
| 20260501232013 | 7 | 0 | 1.6 | 6.4 | 0.00 | 0.00 | 0.00 | 45 | 1018.3 |
| 20260501231532 | 7 | 0 | 0.0 | 4.8 | 0.00 | 0.00 | 0.00 | 45 | 1018.2 |
| 20260501231013 | 8 | 0 | 1.6 | 4.8 | 0.00 | 0.00 | 0.00 | 48 | 1018.3 |
| 20260501230510 | 8 | 0 | 0.0 | 3.2 | 0.00 | 0.00 | 0.00 | 48 | 1018.3 |
| 20260501230030 | 8 | 0 | 0.0 | 3.2 | 0.00 | 0.00 | 0.00 | 44 | 1018.4 |
| 20260501225508 | 8 | 0 | 0.0 | 4.8 | 0.00 | 0.00 | 0.00 | 46 | 1018.2 |
| 20260501225014 | 8 | 355 | 0.0 | 8.0 | 0.00 | 0.00 | 0.00 | 45 | 1018.4 |
| 20260501224530 | 8 | 84 | 1.6 | 8.0 | 0.00 | 0.00 | 0.00 | 45 | 1018.3 |
| 20260501224010 | 8 | 291 | 1.6 | 11.3 | 0.00 | 0.00 | 0.00 | 45 | 1018.3 |
| 20260501223511 | 8 | 0 | 1.6 | 11.3 | 0.00 | 0.00 | 0.00 | 46 | 1018.3 |
| 20260501223037 | 8 | 273 | 1.6 | 11.3 | 0.00 | 0.00 | 0.00 | 45 | 1018.3 |
| 20260501222511 | 8 | 304 | 1.6 | 8.0 | 0.00 | 0.00 | 0.00 | 47 | 1018.3 |
| 20260501222014 | 8 | 0 | 0.0 | 6.4 | 0.00 | 0.00 | 0.00 | 51 | 1018.3 |
| 20260501221533 | 8 | 256 | 1.6 | 6.4 | 0.00 | 0.00 | 0.00 | 46 | 1018.3 |
| 20260501221010 | 8 | 0 | 0.0 | 4.8 | 0.00 | 0.00 | 0.00 | 49 | 1018.4 |
| 20260501220512 | 8 | 223 | 0.0 | 14.5 | 0.00 | 0.00 | 0.00 | 50 | 1018.4 |
| 20260501220030 | 8 | 0 | 0.0 | 14.5 | 0.00 | 0.00 | 0.00 | 47 | 1018.4 |
| 20260501215509 | 8 | 0 | 3.2 | 14.5 | 0.00 | 0.00 | 0.00 | 43 | 1018.4 |
| 20260501215011 | 8 | 283 | 0.0 | 6.4 | 0.00 | 0.00 | 0.00 | 46 | 1018.3 |
| 20260501214533 | 8 | 89 | 0.0 | 8.0 | 0.00 | 0.00 | 0.00 | 51 | 1018.3 |
| 20260501214009 | 8 | 78 | 1.6 | 8.0 | 0.00 | 0.00 | 0.00 | 49 | 1018.3 |
| 20260501213512 | 8 | 223 | 1.6 | 9.7 | 0.00 | 0.00 | 0.00 | 48 | 1018.3 |
| 20260501213031 | 8 | 326 | 1.6 | 12.9 | 0.00 | 0.00 | 0.00 | 47 | 1018.4 |
| 20260501212509 | 8 | 311 | 4.8 | 12.9 | 0.00 | 0.00 | 0.00 | 44 | 1018.4 |
| 20260501212008 | 8 | 40 | 4.8 | 12.9 | 0.00 | 0.00 | 0.00 | 46 | 1018.4 |
| 20260501211547 | 8 | 0 | 1.6 | 8.0 | 0.00 | 0.00 | 0.00 | 45 | 1018.5 |
| 20260501211015 | 8 | 273 | 1.6 | 17.7 | 0.00 | 0.00 | 0.00 | 47 | 1018.5 |
| 20260501210510 | 7 | 0 | 3.2 | 17.7 | 0.00 | 0.00 | 0.00 | 46 | 1018.5 |
| 20260501210038 | 7 | 97 | 1.6 | 4.8 | 0.00 | 0.00 | 0.00 | 48 | 1018.4 |
| 20260501205512 | 7 | 350 | 1.6 | 3.2 | 0.00 | 0.00 | 0.00 | 48 | 1018.6 |
| 20260501205012 | 7 | 40 | 0.0 | 4.8 | 0.00 | 0.00 | 0.00 | 48 | 1018.6 |
| 20260501204532 | 7 | 40 | 0.0 | 6.4 | 0.00 | 0.00 | 0.00 | 49 | 1018.6 |
| 20260501204010 | 7 | 40 | 1.6 | 6.4 | 0.00 | 0.00 | 0.00 | 51 | 1018.7 |
| 20260501203513 | 7 | 0 | 1.6 | 6.4 | 0.00 | 0.00 | 0.00 | 49 | 1018.6 |
| 20260501203031 | 7 | 338 | 0.0 | 11.3 | 0.00 | 0.00 | 0.00 | 52 | 1018.6 |
| 20260501202511 | 7 | 16 | 1.6 | 11.3 | 0.00 | 0.00 | 0.00 | 47 | 1018.7 |
| 20260501202014 | 7 | 88 | 1.6 | 12.9 | 0.00 | 0.00 | 0.00 | 48 | 1018.6 |
| 20260501201530 | 7 | 308 | 0.0 | 12.9 | 0.00 | 0.00 | 0.00 | 48 | 1018.7 |
| 20260501201015 | 7 | 276 | 3.2 | 8.0 | 0.00 | 0.00 | 0.00 | 47 | 1018.6 |
| 20260501200517 | 7 | 0 | 1.6 | 4.8 | 0.00 | 0.00 | 0.00 | 50 | 1018.6 |
| 20260501200030 | 7 | 100 | 1.6 | 4.8 | 0.00 | 0.00 | 0.00 | 48 | 1018.6 |
| 20260501195511 | 7 | 0 | 1.6 | 6.4 | 0.00 | 0.00 | 0.00 | 50 | 1018.7 |
| 20260501195015 | 7 | 17 | 1.6 | 6.4 | 0.00 | 0.00 | 0.00 | 48 | 1018.7 |
| 20260501194533 | 8 | 5 | 1.6 | 6.4 | 0.00 | 0.00 | 0.00 | 48 | 1018.6 |
| 20260501194012 | 7 | 241 | 1.6 | 9.7 | 0.00 | 0.00 | 0.00 | 46 | 1018.6 |
| 20260501193513 | 7 | 0 | 1.6 | 9.7 | 0.00 | 0.00 | 0.00 | 50 | 1018.6 |
| 20260501193029 | 7 | 270 | 1.6 | 14.5 | 0.00 | 0.00 | 0.00 | 50 | 1018.6 |
| 20260501192510 | 7 | 270 | 1.6 | 14.5 | 0.00 | 0.00 | 0.00 | 48 | 1018.6 |
| 20260501192012 | 7 | 0 | 1.6 | 6.4 | 0.00 | 0.00 | 0.00 | 46 | 1018.7 |